Regional Weather Roundup
Issued by NWS

Home | Current Version | Previous Version | Text Only | Print | Product List | Glossary On
Versions: 1 2 3 4 5 6 7 8 9 10 11 12 13 14 15 16 17 18 19 20 21 22 23 24 25 26 27 28 29 30 31 32 33 34 35 36 37 38 39 40 41 42 43 44 45 46 47 48 49 50
000
ASUS44 KLIX 160313
RWRLA
LOUISIANA WEATHER ROUNDUP
NATIONAL WEATHER SERVICE NEW ORLEANS LA
900 PM CST FRI DEC 15 2017

NOTE: "FAIR" INDICATES FEW OR NO CLOUDS BELOW 12,000 FEET WITH NO
      SIGNIFICANT WEATHER AND/OR OBSTRUCTIONS TO VISIBILITY.
      SKY/WX - SKY CONDITION AND SIGNIFICANT WEATHER.
      TMP - AIR TEMPERATURE.    DP   - DEWPOINT TEMPERATURE.
      RH  - RELATIVE HUMIDITY.  PRES - PRESSURE.
      HX  - HEAT INDEX.         WCI  - WIND CHILL INDEX.

*  THESE STATIONS ARE NOT NWS OR FAA STATIONS AND ARE NOT UNDER
   NWS QUALITY CONTROL.

LAZ040-048-061>063-065-066-069-160400-
SOUTHEAST LOUISIANA

CITY           SKY/WX    TMP DP  RH WIND       PRES   REMARKS
N.O. INTL ARPT CLOUDY    48  36  63 NE6       30.27R
N.O. LAKEFRONT CLOUDY    48  37  65 N13       30.28R
N.O. DOWNTOWN* CLOUDY    47  35  63 N6        30.28R
RESERVE*       MOCLDY    48  33  56 NE6       30.28R
SLIDELL        CLOUDY    44  36  73 N5        30.27R
BATON ROUGE    CLOUDY    44  34  67 N3        30.29R
BOOTHVILLE     CLOUDY    51  41  68 N10       30.24R
BELLE CHASSE   CLOUDY    46  38  73 N3        30.26R
BOGALUSA*      FAIR      43  35  74 MISG      30.28R
GALLIANO*      CLOUDY    47  37  68 N6        30.26R
NEW ROADS*     FAIR      42  36  79 CALM      30.29S
GONZALES*      FAIR      46  33  62 CALM      30.29R
HAMMOND*       CLOUDY    41  36  81 N3        30.28S
HOUMA*         CLOUDY    46  40  81 N3        30.26R
PORT FOURCHON* NOT AVBL

$$

LAZ041-044-053-054-160400-
SOUTHWEST LOUISIANA

CITY           SKY/WX    TMP DP  RH WIND       PRES   REMARKS
LAKE CHARLES   CLOUDY    44  39  82 CALM      30.29R
LAFAYETTE      CLOUDY    46  34  62 N3        30.29R
PATTERSON      CLOUDY    46  39  76 N6        30.27S
SALT POINT       N/A     46  40  79 VRB3      30.25S
NEW IBERIA     CLOUDY    46  36  68 N6        30.29R
CHENAULT AIRPK CLEAR     43  36  75 CALM      30.29R

$$

LAZ027-028-160400-
CENTRAL LOUISIANA

CITY           SKY/WX    TMP DP  RH WIND       PRES   REMARKS
FORT POLK      FOG       39  37  93 CALM      30.27S VSB 3/4
ALEXANDRIA INT PTCLDY    38  32  79 CALM      30.27R
ALEXANDRIA     PTCLDY    35  34  96 CALM      30.28R

$$

LAZ001-002-160400-
NORTHWEST LOUISIANA

CITY           SKY/WX    TMP DP  RH WIND       PRES   REMARKS
SHREVEPORT     MOCLDY    35  30  82 CALM      30.23F
BARKSDALE AFB  CLOUDY    32  27  79 SE3       30.23F
DTN SHREVEPORT CLEAR     39  29  67 CALM      30.24S

$$

LAZ014-016-160400-
NORTHEAST LOUISIANA

CITY           SKY/WX    TMP DP  RH WIND       PRES   REMARKS
MONROE         CLEAR     33  29  85 CALM      30.27S
TALLULAH       CLEAR     29  27  92 CALM      30.28R

$$




USA.gov is the U.S. government's official web portal to all federal, state and local government web resources and services.